Zurück zum Katalog

QIANFAN-43

AktivKommunikationPO
NORAD 62244·PAYLOAD·🇨🇳 China

Gestartet Dec 5, 2024 von Taiyuan Satellite Launch Center

Loading…

Nächste Überflüge (nächste 24 Stunden)

TLE

AktuellSource: Space-Track

Epoche: Sep 14, 2026, 20:45 UTC

1 62244U 24232H   26257.86469133  .00000099  00000-0  13414-3 0  9997
2 62244  89.0162  13.5586 0017380 117.3502 242.9420 13.51028779105149

Verfolge QIANFAN-43 in Echtzeit mit AllMySat

Download on the App Store